Volver al catálogo

QIANFAN-146

ActivoComunicacionesPO
NORAD 69105·PAYLOAD·🇨🇳 China

Lanzado May 17, 2026 desde Wenchang Space Launch Site

Loading…

Próximos Pases (próximas 24 horas)

TLE

ActualizadoSource: Space-Track

Época: Sep 14, 2026, 13:29 UTC

1 69105U 26108B   26257.56224850  .00000095  00000-0  12850-3 0  9995
2 69105  89.0191  12.9599 0001986  99.4176 260.7200 13.51038943 16603

Sigue QIANFAN-146 en tiempo real con AllMySat

Download on the App Store